Time,TemperatureF,DewpointF,PressureIn,WindDirection,WindDirectionDegrees,WindSpeedMPH,WindSpeedGustMPH,Humidity,HourlyPrecipIn,Conditions,Clouds,dailyrainin,SoftwareType,DateUTC
2013-07-31 00:05:00,75.9,52.4,29.94,North,11,2.0,4.0,44,0.00,,,0.00,Wunderground v.1.15,2013-07-31 07:05:00,
2013-07-31 00:10:00,75.4,52.0,29.93,NNW,345,2.0,2.0,44,0.00,,,0.00,Wunderground v.1.15,2013-07-31 07:10:00,
2013-07-31 00:16:00,75.0,52.8,29.93,North,360,2.0,3.0,46,0.00,,,0.00,Wunderground v.1.15,2013-07-31 07:16:00,
2013-07-31 00:21:00,74.6,52.4,29.93,North,355,3.0,4.0,46,0.00,,,0.00,Wunderground v.1.15,2013-07-31 07:21:00,
2013-07-31 00:26:00,74.3,52.2,29.93,NNW,340,3.0,4.0,46,0.00,,,0.00,Wunderground v.1.15,2013-07-31 07:26:00,
2013-07-31 00:31:00,74.1,53.7,29.93,NNW,348,3.0,3.0,49,0.00,,,0.00,Wunderground v.1.15,2013-07-31 07:31:00,
2013-07-31 00:37:00,73.6,53.8,29.92,NNW,344,2.0,3.0,50,0.00,,,0.00,Wunderground v.1.15,2013-07-31 07:37:00,
2013-07-31 00:42:00,73.4,51.9,29.92,NW,313,1.0,1.0,47,0.00,,,0.00,Wunderground v.1.15,2013-07-31 07:42:00,
2013-07-31 00:48:00,73.5,52.0,29.92,North,350,1.0,3.0,47,0.00,,,0.00,Wunderground v.1.15,2013-07-31 07:48:00,
2013-07-31 00:53:00,73.7,52.2,29.92,North,350,1.0,2.0,47,0.00,,,0.00,Wunderground v.1.15,2013-07-31 07:53:00,
2013-07-31 00:59:00,73.7,53.3,29.92,North,350,1.0,2.0,49,0.00,,,0.00,Wunderground v.1.15,2013-07-31 07:59:00,
2013-07-31 01:05:00,73.3,53.0,29.91,North,349,2.0,3.0,49,0.00,,,0.00,Wunderground v.1.15,2013-07-31 08:05:00,
2013-07-31 01:10:00,73.1,52.2,29.91,NNW,330,2.0,2.0,48,0.00,,,0.00,Wunderground v.1.15,2013-07-31 08:10:00,
2013-07-31 01:16:00,73.2,53.4,29.90,NNW,330,2.0,2.0,50,0.00,,,0.00,Wunderground v.1.15,2013-07-31 08:16:00,
2013-07-31 01:21:00,73.0,53.3,29.90,NW,311,2.0,2.0,50,0.00,,,0.00,Wunderground v.1.15,2013-07-31 08:21:00,
2013-07-31 01:27:00,72.8,53.6,29.91,NW,311,1.0,2.0,51,0.00,,,0.00,Wunderground v.1.15,2013-07-31 08:27:00,
2013-07-31 01:32:00,72.7,53.0,29.90,NW,312,0.0,2.0,50,0.00,,,0.00,Wunderground v.1.15,2013-07-31 08:32:00,
2013-07-31 01:38:00,72.8,52.5,29.91,NW,312,1.0,2.0,49,0.00,,,0.00,Wunderground v.1.15,2013-07-31 08:38:00,
2013-07-31 01:43:00,72.9,52.6,29.90,NW,312,0.0,1.0,49,0.00,,,0.00,Wunderground v.1.15,2013-07-31 08:43:00,
2013-07-31 01:48:00,72.9,52.6,29.90,NW,312,1.0,1.0,49,0.00,,,0.00,Wunderground v.1.15,2013-07-31 08:48:00,
2013-07-31 01:54:00,72.8,53.6,29.90,NW,312,1.0,2.0,51,0.00,,,0.00,Wunderground v.1.15,2013-07-31 08:54:00,
2013-07-31 01:59:00,72.5,54.4,29.90,NW,312,0.0,2.0,53,0.00,,,0.00,Wunderground v.1.15,2013-07-31 08:59:00,
2013-07-31 02:05:00,72.1,54.0,29.90,NW,312,0.0,1.0,53,0.00,,,0.00,Wunderground v.1.15,2013-07-31 09:05:00,
2013-07-31 02:11:00,71.8,53.7,29.90,NW,312,1.0,2.0,53,0.00,,,0.00,Wunderground v.1.15,2013-07-31 09:11:00,
2013-07-31 02:17:00,71.7,53.1,29.90,NW,312,1.0,2.0,52,0.00,,,0.00,Wunderground v.1.15,2013-07-31 09:17:00,
2013-07-31 02:22:00,71.6,54.1,29.90,NW,312,1.0,2.0,54,0.00,,,0.00,Wunderground v.1.15,2013-07-31 09:22:00,
2013-07-31 02:27:00,71.5,54.5,29.90,NW,312,1.0,2.0,55,0.00,,,0.00,Wunderground v.1.15,2013-07-31 09:27:00,
2013-07-31 02:33:00,71.3,54.8,29.91,NW,312,0.0,1.0,56,0.00,,,0.00,Wunderground v.1.15,2013-07-31 09:33:00,
2013-07-31 02:38:00,71.1,55.1,29.91,NW,312,0.0,2.0,57,0.00,,,0.00,Wunderground v.1.15,2013-07-31 09:38:00,
2013-07-31 02:44:00,71.0,55.9,29.91,NW,309,0.0,1.0,59,0.00,,,0.00,Wunderground v.1.15,2013-07-31 09:44:00,
2013-07-31 02:49:00,70.9,56.3,29.91,NW,309,0.0,1.0,60,0.00,,,0.00,Wunderground v.1.15,2013-07-31 09:49:00,
2013-07-31 02:55:00,71.3,57.6,29.91,SSE,157,1.0,4.0,62,0.00,,,0.00,Wunderground v.1.15,2013-07-31 09:55:00,
2013-07-31 03:00:00,71.7,58.4,29.91,ESE,111,2.0,3.0,63,0.00,,,0.00,Wunderground v.1.15,2013-07-31 10:00:00,
2013-07-31 03:05:00,71.9,58.6,29.91,SE,130,2.0,3.0,63,0.00,,,0.00,Wunderground v.1.15,2013-07-31 10:05:00,
2013-07-31 03:11:00,72.0,58.7,29.91,SE,138,2.0,2.0,63,0.00,,,0.00,Wunderground v.1.15,2013-07-31 10:11:00,
2013-07-31 03:16:00,72.1,59.2,29.91,ESE,111,2.0,2.0,64,0.00,,,0.00,Wunderground v.1.15,2013-07-31 10:16:00,
2013-07-31 03:22:00,72.0,59.2,29.91,SE,125,2.0,2.0,64,0.00,,,0.00,Wunderground v.1.15,2013-07-31 10:22:00,
2013-07-31 03:27:00,72.1,58.8,29.91,SE,144,3.0,4.0,63,0.00,,,0.00,Wunderground v.1.15,2013-07-31 10:27:00,
2013-07-31 03:33:00,72.3,59.0,29.91,ESE,123,3.0,4.0,63,0.00,,,0.00,Wunderground v.1.15,2013-07-31 10:33:00,
2013-07-31 03:39:00,72.4,59.1,29.91,ESE,119,4.0,6.0,63,0.00,,,0.00,Wunderground v.1.15,2013-07-31 10:39:00,
2013-07-31 03:45:00,72.3,60.3,29.91,SE,136,4.0,5.0,66,0.00,,,0.00,Wunderground v.1.15,2013-07-31 10:45:00,
2013-07-31 03:50:00,72.1,61.0,29.90,SE,142,2.0,6.0,68,0.00,,,0.00,Wunderground v.1.15,2013-07-31 10:50:00,
2013-07-31 03:56:00,71.8,60.7,29.90,SSE,164,2.0,6.0,68,0.00,,,0.00,Wunderground v.1.15,2013-07-31 10:56:00,
2013-07-31 04:01:00,71.6,60.9,29.90,SSE,164,2.0,2.0,69,0.00,,,0.00,Wunderground v.1.15,2013-07-31 11:01:00,
2013-07-31 04:07:00,71.4,59.4,29.89,SE,144,1.0,3.0,66,0.00,,,0.00,Wunderground v.1.15,2013-07-31 11:07:00,
2013-07-31 04:12:00,71.4,59.9,29.89,NNE,28,1.0,3.0,67,0.00,,,0.00,Wunderground v.1.15,2013-07-31 11:12:00,
2013-07-31 04:17:00,71.3,59.4,29.88,NNE,24,2.0,4.0,66,0.00,,,0.00,Wunderground v.1.15,2013-07-31 11:17:00,
2013-07-31 04:22:00,71.1,59.2,29.88,ESE,103,2.0,3.0,66,0.00,,,0.00,Wunderground v.1.15,2013-07-31 11:22:00,
2013-07-31 04:28:00,71.2,59.3,29.88,ENE,63,2.0,3.0,66,0.00,,,0.00,Wunderground v.1.15,2013-07-31 11:28:00,
2013-07-31 04:33:00,71.5,59.5,29.89,NNW,327,3.0,3.0,66,0.00,,,0.00,Wunderground v.1.15,2013-07-31 11:33:00,
2013-07-31 04:38:00,71.5,58.7,29.89,ESE,113,3.0,4.0,64,0.00,,,0.00,Wunderground v.1.15,2013-07-31 11:38:00,
2013-07-31 04:44:00,71.6,59.6,29.90,SE,144,2.0,4.0,66,0.00,,,0.00,Wunderground v.1.15,2013-07-31 11:44:00,
2013-07-31 04:49:00,71.6,59.6,29.90,SSE,166,2.0,4.0,66,0.00,,,0.00,Wunderground v.1.15,2013-07-31 11:49:00,
2013-07-31 04:55:00,71.6,60.1,29.89,SE,133,2.0,5.0,67,0.00,,,0.00,Wunderground v.1.15,2013-07-31 11:55:00,
2013-07-31 05:00:00,71.5,60.0,29.90,NNE,32,2.0,2.0,67,0.00,,,0.00,Wunderground v.1.15,2013-07-31 12:00:00,
2013-07-31 05:06:00,71.2,60.1,29.90,NNE,32,1.0,2.0,68,0.00,,,0.00,Wunderground v.1.15,2013-07-31 12:06:00,
2013-07-31 05:11:00,70.9,60.2,29.90,NNE,25,1.0,2.0,69,0.00,,,0.00,Wunderground v.1.15,2013-07-31 12:11:00,
2013-07-31 05:17:00,70.5,60.2,29.90,NNE,22,2.0,2.0,70,0.00,,,0.00,Wunderground v.1.15,2013-07-31 12:17:00,
2013-07-31 05:22:00,70.1,59.9,29.90,North,9,2.0,3.0,70,0.00,,,0.00,Wunderground v.1.15,2013-07-31 12:22:00,
2013-07-31 05:27:00,69.9,59.7,29.90,NNW,329,2.0,3.0,70,0.00,,,0.00,Wunderground v.1.15,2013-07-31 12:27:00,
2013-07-31 05:32:00,69.8,60.0,29.90,North,355,2.0,3.0,71,0.00,,,0.00,Wunderground v.1.15,2013-07-31 12:32:00,
2013-07-31 05:37:00,69.7,59.9,29.90,North,5,2.0,5.0,71,0.00,,,0.00,Wunderground v.1.15,2013-07-31 12:37:00,
2013-07-31 05:42:00,69.6,59.4,29.90,NNW,327,3.0,3.0,70,0.00,,,0.00,Wunderground v.1.15,2013-07-31 12:42:00,
2013-07-31 05:48:00,69.7,59.9,29.90,NNW,329,3.0,3.0,71,0.00,,,0.00,Wunderground v.1.15,2013-07-31 12:48:00,
2013-07-31 05:53:00,69.7,59.5,29.90,North,360,3.0,4.0,70,0.00,,,0.00,Wunderground v.1.15,2013-07-31 12:53:00,
2013-07-31 05:59:00,69.8,58.8,29.90,North,360,3.0,4.0,68,0.00,,,0.00,Wunderground v.1.15,2013-07-31 12:59:00,
2013-07-31 06:05:00,70.1,59.9,29.90,NW,305,2.0,3.0,70,0.00,,,0.00,Wunderground v.1.15,2013-07-31 13:05:00,
2013-07-31 06:10:00,70.1,60.3,29.90,WNW,292,2.0,2.0,71,0.00,,,0.00,Wunderground v.1.15,2013-07-31 13:10:00,
2013-07-31 06:16:00,70.1,58.2,29.90,WNW,284,2.0,2.0,66,0.00,,,0.00,Wunderground v.1.15,2013-07-31 13:16:00,
2013-07-31 06:21:00,70.2,59.1,29.90,WNW,292,1.0,3.0,68,0.00,,,0.00,Wunderground v.1.15,2013-07-31 13:21:00,
2013-07-31 06:26:00,70.3,59.2,29.90,WNW,292,1.0,3.0,68,0.00,,,0.00,Wunderground v.1.15,2013-07-31 13:26:00,
2013-07-31 06:32:00,70.5,55.9,29.90,NNE,26,2.0,3.0,60,0.00,,,0.00,Wunderground v.1.15,2013-07-31 13:32:00,
2013-07-31 06:38:00,71.2,55.7,29.90,NE,56,2.0,3.0,58,0.00,,,0.00,Wunderground v.1.15,2013-07-31 13:38:00,
2013-07-31 06:44:00,71.9,56.3,29.90,NNE,20,2.0,3.0,58,0.00,,,0.00,Wunderground v.1.15,2013-07-31 13:44:00,
2013-07-31 06:49:00,72.2,57.5,29.90,NNW,346,2.0,4.0,60,0.00,,,0.00,Wunderground v.1.15,2013-07-31 13:49:00,
2013-07-31 06:55:00,72.0,58.7,29.90,North,360,2.0,3.0,63,0.00,,,0.00,Wunderground v.1.15,2013-07-31 13:55:00,
2013-07-31 07:00:00,71.9,58.6,29.90,North,355,2.0,2.0,63,0.00,,,0.00,Wunderground v.1.15,2013-07-31 14:00:00,
2013-07-31 07:06:00,72.0,58.3,29.90,North,355,2.0,3.0,62,0.00,,,0.00,Wunderground v.1.15,2013-07-31 14:06:00,
2013-07-31 07:11:00,72.2,57.5,29.90,North,355,2.0,2.0,60,0.00,,,0.00,Wunderground v.1.15,2013-07-31 14:11:00,
2013-07-31 07:16:00,72.5,56.4,29.90,North,355,1.0,2.0,57,0.00,,,0.00,Wunderground v.1.15,2013-07-31 14:16:00,
2013-07-31 07:21:00,72.9,58.2,29.91,ESE,115,1.0,2.0,60,0.00,,,0.00,Wunderground v.1.15,2013-07-31 14:21:00,
2013-07-31 07:27:00,73.2,57.5,29.91,ESE,115,1.0,2.0,58,0.00,,,0.00,Wunderground v.1.15,2013-07-31 14:27:00,
2013-07-31 07:32:00,73.5,57.8,29.91,ESE,115,1.0,1.0,58,0.00,,,0.00,Wunderground v.1.15,2013-07-31 14:32:00,
2013-07-31 07:38:00,74.3,58.6,29.91,ESE,115,0.0,1.0,58,0.00,,,0.00,Wunderground v.1.15,2013-07-31 14:38:00,
2013-07-31 07:43:00,75.2,55.8,29.91,ESE,113,0.0,1.0,51,0.00,,,0.00,Wunderground v.1.15,2013-07-31 14:43:00,
2013-07-31 07:49:00,76.5,53.6,29.91,NW,323,1.0,4.0,45,0.00,,,0.00,Wunderground v.1.15,2013-07-31 14:49:00,
2013-07-31 07:55:00,77.7,54.7,29.92,NNE,13,2.0,3.0,45,0.00,,,0.00,Wunderground v.1.15,2013-07-31 14:55:00,
2013-07-31 08:01:00,78.8,54.4,29.92,North,11,1.0,2.0,43,0.00,,,0.00,Wunderground v.1.15,2013-07-31 15:01:00,
2013-07-31 08:07:00,79.7,54.6,29.92,NNE,20,2.0,2.0,42,0.00,,,0.00,Wunderground v.1.15,2013-07-31 15:07:00,
2013-07-31 08:12:00,80.2,54.4,29.92,North,9,2.0,3.0,41,0.00,,,0.00,Wunderground v.1.15,2013-07-31 15:12:00,
2013-07-31 08:17:00,80.6,54.0,29.92,North,5,2.0,4.0,40,0.00,,,0.00,Wunderground v.1.15,2013-07-31 15:17:00,
2013-07-31 08:23:00,81.1,54.5,29.92,North,5,2.0,2.0,40,0.00,,,0.00,Wunderground v.1.15,2013-07-31 15:23:00,
2013-07-31 08:28:00,81.7,55.7,29.92,SSE,149,1.0,3.0,41,0.00,,,0.00,Wunderground v.1.15,2013-07-31 15:28:00,
2013-07-31 08:34:00,81.8,57.8,29.92,ESE,119,2.0,2.0,44,0.00,,,0.00,Wunderground v.1.15,2013-07-31 15:34:00,
2013-07-31 08:39:00,81.9,57.8,29.92,ESE,115,2.0,2.0,44,0.00,,,0.00,Wunderground v.1.15,2013-07-31 15:39:00,
2013-07-31 08:45:00,82.0,55.3,29.92,NNE,30,1.0,2.0,40,0.00,,,0.00,Wunderground v.1.15,2013-07-31 15:45:00,
2013-07-31 08:51:00,82.0,54.6,29.92,WNW,303,1.0,3.0,39,0.00,,,0.00,Wunderground v.1.15,2013-07-31 15:51:00,
2013-07-31 08:56:00,81.4,54.1,29.92,NNE,15,2.0,3.0,39,0.00,,,0.00,Wunderground v.1.15,2013-07-31 15:56:00,
2013-07-31 09:01:00,81.4,54.8,29.92,NW,308,2.0,2.0,40,0.00,,,0.00,Wunderground v.1.15,2013-07-31 16:01:00,
2013-07-31 09:07:00,81.5,54.8,29.92,WNW,295,1.0,4.0,40,0.00,,,0.00,Wunderground v.1.15,2013-07-31 16:07:00,
2013-07-31 09:12:00,82.0,53.9,29.92,NE,51,2.0,3.0,38,0.00,,,0.00,Wunderground v.1.15,2013-07-31 16:12:00,
2013-07-31 09:18:00,82.5,55.0,29.92,SE,126,3.0,9.0,39,0.00,,,0.00,Wunderground v.1.15,2013-07-31 16:18:00,
2013-07-31 09:24:00,81.9,53.1,29.92,SE,142,4.0,9.0,37,0.00,,,0.00,Wunderground v.1.15,2013-07-31 16:24:00,
2013-07-31 09:29:00,81.4,54.1,29.92,SE,134,4.0,9.0,39,0.00,,,0.00,Wunderground v.1.15,2013-07-31 16:29:00,
2013-07-31 09:35:00,81.6,55.6,29.92,SE,133,3.0,4.0,41,0.00,,,0.00,Wunderground v.1.15,2013-07-31 16:35:00,
2013-07-31 09:40:00,82.0,56.0,29.92,ESE,117,3.0,3.0,41,0.00,,,0.00,Wunderground v.1.15,2013-07-31 16:40:00,
2013-07-31 09:46:00,81.8,53.7,29.92,SE,128,3.0,7.0,38,0.00,,,0.00,Wunderground v.1.15,2013-07-31 16:46:00,
2013-07-31 09:51:00,81.1,52.4,29.92,SSE,153,4.0,6.0,37,0.00,,,0.00,Wunderground v.1.15,2013-07-31 16:51:00,
2013-07-31 09:57:00,80.7,52.7,29.92,SE,136,4.0,7.0,38,0.00,,,0.00,Wunderground v.1.15,2013-07-31 16:57:00,
2013-07-31 10:02:00,80.6,52.6,29.92,SSE,153,3.0,4.0,38,0.00,,,0.00,Wunderground v.1.15,2013-07-31 17:02:00,
2013-07-31 10:07:00,80.4,53.9,29.92,NNW,329,3.0,7.0,40,0.00,,,0.00,Wunderground v.1.15,2013-07-31 17:07:00,
2013-07-31 10:13:00,80.4,56.5,29.92,SE,135,2.0,4.0,44,0.00,,,0.00,Wunderground v.1.15,2013-07-31 17:13:00,
2013-07-31 10:19:00,80.4,55.2,29.92,SE,140,3.0,8.0,42,0.00,,,0.00,Wunderground v.1.15,2013-07-31 17:19:00,
2013-07-31 10:25:00,80.2,56.9,29.92,ESE,103,3.0,4.0,45,0.00,,,0.00,Wunderground v.1.15,2013-07-31 17:25:00,
2013-07-31 10:31:00,79.8,58.4,29.92,South,169,4.0,9.0,48,0.00,,,0.00,Wunderground v.1.15,2013-07-31 17:31:00,
2013-07-31 10:37:00,78.9,58.7,29.93,SSE,150,6.0,9.0,50,0.00,,,0.00,Wunderground v.1.15,2013-07-31 17:37:00,
2013-07-31 10:42:00,78.2,61.7,29.93,SSE,160,6.0,7.0,57,0.00,,,0.00,Wunderground v.1.15,2013-07-31 17:42:00,
2013-07-31 10:48:00,77.3,61.4,29.93,South,169,4.0,8.0,58,0.00,,,0.00,Wunderground v.1.15,2013-07-31 17:48:00,
2013-07-31 10:54:00,76.7,58.3,29.92,NNW,331,2.0,3.0,53,0.00,,,0.00,Wunderground v.1.15,2013-07-31 17:54:00,
2013-07-31 10:59:00,76.2,59.9,29.92,NNW,341,3.0,5.0,57,0.00,,,0.00,Wunderground v.1.15,2013-07-31 17:59:00,
2013-07-31 11:05:00,76.1,56.7,29.91,NW,318,4.0,6.0,51,0.00,,,0.00,Wunderground v.1.15,2013-07-31 18:05:00,
2013-07-31 11:10:00,76.6,57.7,29.91,NW,325,4.0,4.0,52,0.00,,,0.00,Wunderground v.1.15,2013-07-31 18:10:00,
2013-07-31 11:16:00,77.6,56.9,29.91,WNW,288,3.0,4.0,49,0.00,,,0.00,Wunderground v.1.15,2013-07-31 18:16:00,
2013-07-31 11:22:00,78.5,57.2,29.91,NW,323,2.0,3.0,48,0.00,,,0.00,Wunderground v.1.15,2013-07-31 18:22:00,
2013-07-31 11:27:00,79.1,55.9,29.91,NW,308,2.0,3.0,45,0.00,,,0.00,Wunderground v.1.15,2013-07-31 18:27:00,
2013-07-31 11:32:00,79.5,56.9,29.91,WSW,243,2.0,5.0,46,0.00,,,0.00,Wunderground v.1.15,2013-07-31 18:32:00,
2013-07-31 11:38:00,79.7,56.5,29.91,WSW,246,3.0,5.0,45,0.00,,,0.00,Wunderground v.1.15,2013-07-31 18:38:00,
2013-07-31 11:43:00,80.0,56.7,29.91,WNW,289,3.0,3.0,45,0.00,,,0.00,Wunderground v.1.15,2013-07-31 18:43:00,
2013-07-31 11:49:00,80.7,56.8,29.90,WNW,287,1.0,3.0,44,0.00,,,0.00,Wunderground v.1.15,2013-07-31 18:49:00,
2013-07-31 11:55:00,81.6,56.9,29.90,NNE,24,1.0,4.0,43,0.00,,,0.00,Wunderground v.1.15,2013-07-31 18:55:00,
2013-07-31 12:00:00,82.2,55.5,29.90,NW,309,2.0,2.0,40,0.00,,,0.00,Wunderground v.1.15,2013-07-31 19:00:00,
2013-07-31 12:06:00,82.4,55.0,29.90,SE,134,3.0,6.0,39,0.00,,,0.00,Wunderground v.1.15,2013-07-31 19:06:00,
2013-07-31 12:11:00,82.0,57.3,29.90,South,179,4.0,4.0,43,0.00,,,0.00,Wunderground v.1.15,2013-07-31 19:11:00,
2013-07-31 12:16:00,81.9,55.2,29.90,SSE,150,4.0,7.0,40,0.00,,,0.00,Wunderground v.1.15,2013-07-31 19:16:00,
2013-07-31 12:22:00,82.0,56.6,29.90,WSW,238,3.0,3.0,42,0.00,,,0.00,Wunderground v.1.15,2013-07-31 19:22:00,
2013-07-31 12:27:00,82.2,53.3,29.90,SSE,168,2.0,8.0,37,0.00,,,0.00,Wunderground v.1.15,2013-07-31 19:27:00,
2013-07-31 12:32:00,82.0,55.3,29.90,SSE,157,4.0,4.0,40,0.00,,,0.00,Wunderground v.1.15,2013-07-31 19:32:00,
2013-07-31 12:38:00,81.6,53.5,29.90,SSW,200,5.0,6.0,38,0.00,,,0.00,Wunderground v.1.15,2013-07-31 19:38:00,
2013-07-31 12:44:00,81.1,57.1,29.89,SE,142,5.0,8.0,44,0.00,,,0.00,Wunderground v.1.15,2013-07-31 19:44:00,
2013-07-31 12:49:00,80.7,56.1,29.89,SSE,151,6.0,8.0,43,0.00,,,0.00,Wunderground v.1.15,2013-07-31 19:49:00,
2013-07-31 12:55:00,80.7,56.8,29.89,SW,215,4.0,7.0,44,0.00,,,0.00,Wunderground v.1.15,2013-07-31 19:55:00,
2013-07-31 13:01:00,80.8,56.9,29.89,SSW,211,3.0,5.0,44,0.00,,,0.00,Wunderground v.1.15,2013-07-31 20:01:00,
2013-07-31 13:07:00,81.1,55.2,29.89,South,173,3.0,5.0,41,0.00,,,0.00,Wunderground v.1.15,2013-07-31 20:07:00,
2013-07-31 13:12:00,81.3,55.3,29.89,WSW,241,2.0,3.0,41,0.00,,,0.00,Wunderground v.1.15,2013-07-31 20:12:00,
2013-07-31 13:18:00,82.0,56.0,29.88,SW,217,2.0,5.0,41,0.00,,,0.00,Wunderground v.1.15,2013-07-31 20:18:00,
2013-07-31 13:23:00,83.1,56.3,29.88,SSW,194,3.0,3.0,40,0.00,,,0.00,Wunderground v.1.15,2013-07-31 20:23:00,
2013-07-31 13:29:00,83.1,57.0,29.88,SSE,155,3.0,5.0,41,0.00,,,0.00,Wunderground v.1.15,2013-07-31 20:29:00,
2013-07-31 13:35:00,82.8,54.6,29.88,South,179,3.0,4.0,38,0.00,,,0.00,Wunderground v.1.15,2013-07-31 20:35:00,
2013-07-31 13:40:00,83.2,55.0,29.88,ESE,117,3.0,4.0,38,0.00,,,0.00,Wunderground v.1.15,2013-07-31 20:40:00,
2013-07-31 13:45:00,83.3,55.8,29.87,SSW,199,3.0,4.0,39,0.00,,,0.00,Wunderground v.1.15,2013-07-31 20:45:00,
2013-07-31 13:51:00,83.7,55.4,29.87,SE,136,2.0,3.0,38,0.00,,,0.00,Wunderground v.1.15,2013-07-31 20:51:00,
2013-07-31 13:57:00,83.7,53.9,29.87,SSE,167,3.0,4.0,36,0.00,,,0.00,Wunderground v.1.15,2013-07-31 20:57:00,
2013-07-31 14:02:00,83.5,54.5,29.87,ESE,118,4.0,5.0,37,0.00,,,0.00,Wunderground v.1.15,2013-07-31 21:02:00,
2013-07-31 14:08:00,83.1,54.9,29.87,SSE,153,4.0,5.0,38,0.00,,,0.00,Wunderground v.1.15,2013-07-31 21:08:00,
2013-07-31 14:13:00,83.7,55.4,29.86,SSE,157,3.0,7.0,38,0.00,,,0.00,Wunderground v.1.15,2013-07-31 21:13:00,
2013-07-31 14:19:00,85.0,54.3,29.86,SE,145,3.0,7.0,35,0.00,,,0.00,Wunderground v.1.15,2013-07-31 21:19:00,
2013-07-31 14:25:00,85.6,55.6,29.85,SSE,165,3.0,7.0,36,0.00,,,0.00,Wunderground v.1.15,2013-07-31 21:25:00,
2013-07-31 14:30:00,85.2,54.5,29.85,SE,130,3.0,3.0,35,0.00,,,0.00,Wunderground v.1.15,2013-07-31 21:30:00,
2013-07-31 14:36:00,85.3,53.8,29.85,SE,146,4.0,7.0,34,0.00,,,0.00,Wunderground v.1.15,2013-07-31 21:36:00,
2013-07-31 14:41:00,85.6,54.0,29.84,SSE,154,4.0,8.0,34,0.00,,,0.00,Wunderground v.1.15,2013-07-31 21:41:00,
2013-07-31 14:46:00,86.2,52.9,29.84,NNE,26,4.0,8.0,32,0.00,,,0.00,Wunderground v.1.15,2013-07-31 21:46:00,
2013-07-31 14:51:00,87.1,51.9,29.83,SSE,155,4.0,9.0,30,0.00,,,0.00,Wunderground v.1.15,2013-07-31 21:51:00,
2013-07-31 14:56:00,87.0,52.7,29.84,SSW,202,4.0,9.0,31,0.00,,,0.00,Wunderground v.1.15,2013-07-31 21:56:00,
2013-07-31 15:02:00,86.9,51.7,29.84,SW,217,5.0,5.0,30,0.00,,,0.00,Wunderground v.1.15,2013-07-31 22:02:00,
2013-07-31 15:08:00,86.7,55.0,29.84,SE,125,4.0,5.0,34,0.00,,,0.00,Wunderground v.1.15,2013-07-31 22:08:00,
2013-07-31 15:13:00,86.5,54.0,29.84,SW,232,4.0,5.0,33,0.00,,,0.00,Wunderground v.1.15,2013-07-31 22:13:00,
2013-07-31 15:18:00,86.5,54.8,29.83,North,355,5.0,6.0,34,0.00,,,0.00,Wunderground v.1.15,2013-07-31 22:18:00,
2013-07-31 15:23:00,86.8,55.9,29.83,North,355,4.0,5.0,35,0.00,,,0.00,Wunderground v.1.15,2013-07-31 22:23:00,
2013-07-31 15:29:00,86.4,57.8,29.83,WSW,254,4.0,5.0,38,0.00,,,0.00,Wunderground v.1.15,2013-07-31 22:29:00,
2013-07-31 15:35:00,86.0,58.2,29.83,WSW,252,4.0,8.0,39,0.00,,,0.00,Wunderground v.1.15,2013-07-31 22:35:00,
2013-07-31 15:41:00,84.7,57.0,29.82,WSW,257,5.0,5.0,39,0.00,,,0.00,Wunderground v.1.15,2013-07-31 22:41:00,
2013-07-31 15:47:00,85.4,58.3,29.82,NW,321,5.0,8.0,40,0.00,,,0.00,Wunderground v.1.15,2013-07-31 22:47:00,
2013-07-31 15:52:00,85.6,58.5,29.82,NW,324,5.0,9.0,40,0.00,,,0.00,Wunderground v.1.15,2013-07-31 22:52:00,
2013-07-31 15:58:00,85.9,56.6,29.82,NNW,346,5.0,9.0,37,0.00,,,0.00,Wunderground v.1.15,2013-07-31 22:58:00,
2013-07-31 16:04:00,85.0,57.3,29.82,WNW,298,4.0,5.0,39,0.00,,,0.00,Wunderground v.1.15,2013-07-31 23:04:00,
2013-07-31 16:09:00,84.4,58.1,29.81,NW,304,3.0,5.0,41,0.00,,,0.00,Wunderground v.1.15,2013-07-31 23:09:00,
2013-07-31 16:15:00,84.0,57.8,29.81,WNW,302,4.0,5.0,41,0.00,,,0.00,Wunderground v.1.15,2013-07-31 23:15:00,
2013-07-31 16:21:00,83.6,57.4,29.81,NNE,13,5.0,7.0,41,0.00,,,0.00,Wunderground v.1.15,2013-07-31 23:21:00,
2013-07-31 16:27:00,84.1,58.5,29.81,WNW,284,4.0,7.0,42,0.00,,,0.00,Wunderground v.1.15,2013-07-31 23:27:00,
2013-07-31 16:32:00,84.3,58.0,29.81,WNW,294,3.0,3.0,41,0.00,,,0.00,Wunderground v.1.15,2013-07-31 23:32:00,
2013-07-31 16:37:00,84.1,57.9,29.81,North,360,3.0,4.0,41,0.00,,,0.00,Wunderground v.1.15,2013-07-31 23:37:00,
2013-07-31 16:43:00,83.5,56.6,29.81,NW,321,3.0,4.0,40,0.00,,,0.00,Wunderground v.1.15,2013-07-31 23:43:00,
2013-07-31 16:49:00,83.0,57.5,29.81,NNW,342,3.0,5.0,42,0.00,,,0.00,Wunderground v.1.15,2013-07-31 23:49:00,
2013-07-31 16:55:00,83.0,57.5,29.81,WNW,284,3.0,3.0,42,0.00,,,0.00,Wunderground v.1.15,2013-07-31 23:55:00,
2013-07-31 17:00:00,82.9,58.1,29.81,WNW,286,2.0,2.0,43,0.00,,,0.00,Wunderground v.1.15,2013-08-01 00:00:00,
2013-07-31 17:05:00,82.9,57.5,29.81,North,360,2.0,3.0,42,0.00,,,0.00,Wunderground v.1.15,2013-08-01 00:05:00,
2013-07-31 17:11:00,82.8,56.0,29.81,NNW,327,3.0,4.0,40,0.00,,,0.00,Wunderground v.1.15,2013-08-01 00:11:00,
2013-07-31 17:17:00,82.8,56.0,29.81,WNW,292,3.0,5.0,40,0.00,,,0.00,Wunderground v.1.15,2013-08-01 00:17:00,
2013-07-31 17:22:00,83.6,56.0,29.81,NNW,335,3.0,5.0,39,0.00,,,0.00,Wunderground v.1.15,2013-08-01 00:22:00,
2013-07-31 17:27:00,83.9,54.8,29.81,NW,314,3.0,5.0,37,0.00,,,0.00,Wunderground v.1.15,2013-08-01 00:27:00,
2013-07-31 17:33:00,83.5,56.6,29.81,WNW,287,3.0,4.0,40,0.00,,,0.00,Wunderground v.1.15,2013-08-01 00:33:00,
2013-07-31 17:39:00,82.7,55.2,29.81,NNW,331,4.0,4.0,39,0.00,,,0.00,Wunderground v.1.15,2013-08-01 00:39:00,
2013-07-31 17:45:00,82.3,55.6,29.81,NNW,336,3.0,3.0,40,0.00,,,0.00,Wunderground v.1.15,2013-08-01 00:45:00,
2013-07-31 17:50:00,82.0,55.3,29.81,NNW,333,2.0,3.0,40,0.00,,,0.00,Wunderground v.1.15,2013-08-01 00:50:00,
2013-07-31 17:56:00,81.8,55.8,29.81,NW,321,2.0,3.0,41,0.00,,,0.00,Wunderground v.1.15,2013-08-01 00:56:00,
2013-07-31 18:01:00,81.6,55.6,29.81,NW,321,1.0,2.0,41,0.00,,,0.00,Wunderground v.1.15,2013-08-01 01:01:00,
2013-07-31 18:07:00,81.3,56.0,29.82,NNW,338,2.0,2.0,42,0.00,,,0.00,Wunderground v.1.15,2013-08-01 01:07:00,
2013-07-31 18:12:00,81.1,56.5,29.82,NNW,338,1.0,2.0,43,0.00,,,0.00,Wunderground v.1.15,2013-08-01 01:12:00,
2013-07-31 18:18:00,80.9,56.9,29.82,NNW,338,1.0,2.0,44,0.00,,,0.00,Wunderground v.1.15,2013-08-01 01:18:00,
2013-07-31 18:23:00,80.6,57.3,29.83,NNW,338,2.0,2.0,45,0.00,,,0.00,Wunderground v.1.15,2013-08-01 01:23:00,
2013-07-31 18:29:00,80.3,56.4,29.83,NNW,340,2.0,2.0,44,0.00,,,0.00,Wunderground v.1.15,2013-08-01 01:29:00,
2013-07-31 18:35:00,80.0,57.4,29.83,NNW,340,2.0,4.0,46,0.00,,,0.00,Wunderground v.1.15,2013-08-01 01:35:00,
2013-07-31 18:41:00,79.7,56.5,29.84,SW,236,3.0,6.0,45,0.00,,,0.00,Wunderground v.1.15,2013-08-01 01:41:00,
2013-07-31 18:47:00,79.0,55.8,29.84,NW,318,5.0,11.0,45,0.00,,,0.00,Wunderground v.1.15,2013-08-01 01:47:00,
2013-07-31 18:52:00,78.7,56.2,29.84,NNW,338,5.0,7.0,46,0.00,,,0.00,Wunderground v.1.15,2013-08-01 01:52:00,
2013-07-31 18:58:00,78.3,56.4,29.84,NW,306,5.0,9.0,47,0.00,,,0.00,Wunderground v.1.15,2013-08-01 01:58:00,
2013-07-31 19:03:00,78.0,56.1,29.84,West,260,4.0,5.0,47,0.00,,,0.00,Wunderground v.1.15,2013-08-01 02:03:00,
2013-07-31 19:08:00,77.6,56.9,29.84,WSW,247,4.0,7.0,49,0.00,,,0.00,Wunderground v.1.15,2013-08-01 02:08:00,
2013-07-31 19:14:00,76.9,56.3,29.84,NNW,338,6.0,10.0,49,0.00,,,0.00,Wunderground v.1.15,2013-08-01 02:14:00,
2013-07-31 19:19:00,76.4,56.9,29.84,WSW,253,6.0,10.0,51,0.00,,,0.00,Wunderground v.1.15,2013-08-01 02:19:00,
2013-07-31 19:25:00,75.7,57.4,29.84,NNW,338,7.0,13.0,53,0.00,,,0.00,Wunderground v.1.15,2013-08-01 02:25:00,
2013-07-31 19:30:00,75.2,57.4,29.83,NW,326,8.0,8.0,54,0.00,,,0.00,Wunderground v.1.15,2013-08-01 02:30:00,
2013-07-31 19:36:00,74.9,57.6,29.84,WNW,298,7.0,10.0,55,0.00,,,0.00,Wunderground v.1.15,2013-08-01 02:36:00,
2013-07-31 19:41:00,74.7,56.9,29.83,NW,319,6.0,8.0,54,0.00,,,0.00,Wunderground v.1.15,2013-08-01 02:41:00,
2013-07-31 19:47:00,74.7,56.9,29.83,NW,322,5.0,8.0,54,0.00,,,0.00,Wunderground v.1.15,2013-08-01 02:47:00,
2013-07-31 19:52:00,74.7,56.9,29.83,NW,314,4.0,6.0,54,0.00,,,0.00,Wunderground v.1.15,2013-08-01 02:52:00,
2013-07-31 19:58:00,74.6,56.9,29.83,NW,308,4.0,6.0,54,0.00,,,0.00,Wunderground v.1.15,2013-08-01 02:58:00,
2013-07-31 20:03:00,74.6,57.4,29.83,WNW,296,3.0,4.0,55,0.00,,,0.00,Wunderground v.1.15,2013-08-01 03:03:00,
2013-07-31 20:08:00,74.6,57.4,29.83,WSW,248,2.0,4.0,55,0.00,,,0.00,Wunderground v.1.15,2013-08-01 03:08:00,
2013-07-31 20:14:00,74.7,56.9,29.83,WSW,246,2.0,4.0,54,0.00,,,0.00,Wunderground v.1.15,2013-08-01 03:14:00,
2013-07-31 20:19:00,74.7,56.9,29.84,South,186,3.0,4.0,54,0.00,,,0.00,Wunderground v.1.15,2013-08-01 03:19:00,
2013-07-31 20:25:00,74.6,57.4,29.83,WSW,252,2.0,3.0,55,0.00,,,0.00,Wunderground v.1.15,2013-08-01 03:25:00,
2013-07-31 20:30:00,74.6,57.4,29.83,West,273,2.0,2.0,55,0.00,,,0.00,Wunderground v.1.15,2013-08-01 03:30:00,
2013-07-31 20:35:00,74.5,57.3,29.84,WNW,298,2.0,3.0,55,0.00,,,0.00,Wunderground v.1.15,2013-08-01 03:35:00,
2013-07-31 20:40:00,74.5,57.3,29.84,NNW,338,2.0,2.0,55,0.00,,,0.00,Wunderground v.1.15,2013-08-01 03:40:00,
2013-07-31 20:46:00,74.5,57.8,29.84,NNW,336,2.0,2.0,56,0.00,,,0.00,Wunderground v.1.15,2013-08-01 03:46:00,
2013-07-31 20:51:00,74.5,57.3,29.84,NNW,336,1.0,2.0,55,0.00,,,0.00,Wunderground v.1.15,2013-08-01 03:51:00,
2013-07-31 20:57:00,74.3,57.6,29.84,NW,324,3.0,3.0,56,0.00,,,0.00,Wunderground v.1.15,2013-08-01 03:57:00,
2013-07-31 21:01:00,74.3,57.1,29.84,NW,315,3.0,3.0,55,0.00,,,0.00,Wunderground v.1.15,2013-08-01 04:01:00,
2013-07-31 21:02:00,74.3,57.1,29.84,NW,312,3.0,3.0,55,0.00,,,0.00,Wunderground v.1.15,2013-08-01 04:02:00,
2013-07-31 21:04:00,74.3,57.1,29.84,WNW,297,3.0,5.0,55,0.00,,,0.00,Wunderground v.1.15,2013-08-01 04:04:00,
2013-07-31 21:05:00,74.3,56.6,29.84,NW,318,3.0,5.0,54,0.00,,,0.00,Wunderground v.1.15,2013-08-01 04:05:00,
2013-07-31 21:10:00,74.3,56.6,29.85,NNE,18,3.0,3.0,54,0.00,,,0.00,Wunderground v.1.15,2013-08-01 04:10:00,
2013-07-31 21:16:00,74.4,56.7,29.85,SSE,151,4.0,9.0,54,0.00,,,0.00,Wunderground v.1.15,2013-08-01 04:16:00,
2013-07-31 21:22:00,74.9,56.6,29.85,SSE,154,5.0,5.0,53,0.00,,,0.00,Wunderground v.1.15,2013-08-01 04:22:00,
2013-07-31 21:28:00,74.8,57.5,29.85,SE,126,3.0,5.0,55,0.00,,,0.00,Wunderground v.1.15,2013-08-01 04:28:00,
2013-07-31 21:33:00,74.4,57.7,29.85,SSE,156,2.0,3.0,56,0.00,,,0.00,Wunderground v.1.15,2013-08-01 04:33:00,
2013-07-31 21:39:00,73.9,57.7,29.86,South,172,2.0,5.0,57,0.00,,,0.00,Wunderground v.1.15,2013-08-01 04:39:00,
2013-07-31 21:45:00,73.6,56.4,29.86,South,171,2.0,4.0,55,0.00,,,0.00,Wunderground v.1.15,2013-08-01 04:45:00,
2013-07-31 21:50:00,73.4,56.2,29.86,South,171,1.0,2.0,55,0.00,,,0.00,Wunderground v.1.15,2013-08-01 04:50:00,
2013-07-31 21:56:00,72.9,56.3,29.86,NNW,338,2.0,3.0,56,0.00,,,0.00,Wunderground v.1.15,2013-08-01 04:56:00,
2013-07-31 22:02:00,72.5,55.9,29.87,NW,307,2.0,2.0,56,0.00,,,0.00,Wunderground v.1.15,2013-08-01 05:02:00,
2013-07-31 22:08:00,72.3,55.7,29.87,NW,315,2.0,5.0,56,0.00,,,0.00,Wunderground v.1.15,2013-08-01 05:08:00,
2013-07-31 22:13:00,72.3,56.2,29.87,WNW,294,3.0,4.0,57,0.00,,,0.00,Wunderground v.1.15,2013-08-01 05:13:00,
2013-07-31 22:18:00,72.2,56.1,29.87,NW,324,3.0,5.0,57,0.00,,,0.00,Wunderground v.1.15,2013-08-01 05:18:00,
2013-07-31 22:23:00,71.9,56.3,29.87,NW,324,4.0,4.0,58,0.00,,,0.00,Wunderground v.1.15,2013-08-01 05:23:00,
2013-07-31 22:28:00,71.9,55.8,29.87,NNW,330,4.0,5.0,57,0.00,,,0.00,Wunderground v.1.15,2013-08-01 05:28:00,
2013-07-31 22:34:00,72.0,55.9,29.87,NW,323,5.0,7.0,57,0.00,,,0.00,Wunderground v.1.15,2013-08-01 05:34:00,
2013-07-31 22:39:00,72.0,56.4,29.87,WNW,291,3.0,7.0,58,0.00,,,0.00,Wunderground v.1.15,2013-08-01 05:39:00,
2013-07-31 22:45:00,71.6,56.5,29.87,WNW,283,2.0,4.0,59,0.00,,,0.00,Wunderground v.1.15,2013-08-01 05:45:00,
2013-07-31 22:50:00,71.2,56.1,29.87,WNW,302,2.0,3.0,59,0.00,,,0.00,Wunderground v.1.15,2013-08-01 05:50:00,
2013-07-31 22:56:00,70.9,56.3,29.87,NNW,331,2.0,3.0,60,0.00,,,0.00,Wunderground v.1.15,2013-08-01 05:56:00,
2013-07-31 23:01:00,70.6,56.5,29.87,NNW,331,2.0,2.0,61,0.00,,,0.00,Wunderground v.1.15,2013-08-01 06:01:00,
2013-07-31 23:07:00,70.4,56.3,29.88,NNW,331,2.0,3.0,61,0.00,,,0.00,Wunderground v.1.15,2013-08-01 06:07:00,
2013-07-31 23:12:00,70.4,56.8,29.88,NNW,331,1.0,1.0,62,0.00,,,0.00,Wunderground v.1.15,2013-08-01 06:12:00,
2013-07-31 23:17:00,70.3,56.7,29.89,SE,128,1.0,2.0,62,0.00,,,0.00,Wunderground v.1.15,2013-08-01 06:17:00,
2013-07-31 23:23:00,71.2,56.6,29.89,SSE,155,3.0,7.0,60,0.00,,,0.00,Wunderground v.1.15,2013-08-01 06:23:00,
2013-07-31 23:29:00,71.9,57.3,29.89,SE,134,5.0,7.0,60,0.00,,,0.00,Wunderground v.1.15,2013-08-01 06:29:00,
2013-07-31 23:34:00,71.9,57.7,29.88,SSE,156,5.0,5.0,61,0.00,,,0.00,Wunderground v.1.15,2013-08-01 06:34:00,
2013-07-31 23:39:00,71.6,57.9,29.88,SSE,156,4.0,8.0,62,0.00,,,0.00,Wunderground v.1.15,2013-08-01 06:39:00,
2013-07-31 23:45:00,71.3,58.1,29.88,SE,142,4.0,8.0,63,0.00,,,0.00,Wunderground v.1.15,2013-08-01 06:45:00,
2013-07-31 23:51:00,70.9,58.1,29.89,SSE,148,4.0,4.0,64,0.00,,,0.00,Wunderground v.1.15,2013-08-01 06:51:00,
2013-07-31 23:56:00,70.6,58.3,29.88,SE,136,4.0,4.0,65,0.00,,,0.00,Wunderground v.1.15,2013-08-01 06:56:00,